CFG6DP EDDF-LGKR

Flight info

Callsign CFG6DP
Flight time N/A
Altitude 35000
Route CINDY8S/18 CINDY Z74 LAMPU DCT NOMBO Y161 MAH DCT VAVOR DCT RADIZ DCT NERRA DCT KOFER DCT RODON DCT LIMJA N732 PITAS
Aircraft A321/M-SDE3FGHIRWY/LB1

Departure

Time 2026-05-04 14:07
Airport Frankfurt Main Airport (EDDF)

Arrival

Time N/A
Airport Corfu Ioannis Kapodistrias International Airport (LGKR)
Time Latitude Longitude Altitude Speed Heading
2026-05-04 13:18 50.03631 8.53871 348 ft 0 kts 159°
2026-05-04 14:03 50.03597 8.53891 337 ft 10 kts 159°
2026-05-04 14:03 50.03557 8.53886 338 ft 6 kts 225°
2026-05-04 14:04 50.03484 8.53591 337 ft 17 kts 250°
2026-05-04 14:04 50.03444 8.53421 334 ft 16 kts 249°
2026-05-04 14:04 50.03404 8.53257 333 ft 16 kts 250°
2026-05-04 14:05 50.03327 8.52932 332 ft 16 kts 249°
2026-05-04 14:05 50.03302 8.52827 331 ft 14 kts 249°
2026-05-04 14:05 50.03271 8.52702 332 ft 10 kts 250°
2026-05-04 14:06 50.03265 8.52617 335 ft 6 kts 261°
2026-05-04 14:06 50.03239 8.52597 335 ft 4 kts 190°
2026-05-04 14:06 50.03211 8.52595 335 ft 8 kts 181°
2026-05-04 14:06 50.02971 8.52598 335 ft 68 kts 180°
2026-05-04 14:07 50.02298 8.52603 334 ft 123 kts 179°
2026-05-04 14:07 50.01295 8.52617 336 ft 164 kts 179°
2026-05-04 14:07 50.00136 8.52650 802 ft 166 kts 182°
2026-05-04 14:07 49.98971 8.52676 1386 ft 169 kts 182°
2026-05-04 14:08 49.97751 8.52816 1685 ft 189 kts 170°
2026-05-04 14:08 49.96479 8.53750 1792 ft 216 kts 145°
2026-05-04 14:08 49.95521 8.55663 1989 ft 238 kts 115°
2026-05-04 14:08 49.94821 8.57991 2632 ft 237 kts 119°
2026-05-04 14:09 49.93982 8.63088 3551 ft 268 kts 94°
2026-05-04 14:09 49.93846 8.66028 4182 ft 276 kts 99°
2026-05-04 14:10 49.92114 8.71269 5695 ft 278 kts 140°
2026-05-04 14:10 49.90578 8.73065 6499 ft 276 kts 148°
2026-05-04 14:10 49.89053 8.74875 7283 ft 278 kts 138°
2026-05-04 14:10 49.87816 8.77188 8046 ft 281 kts 124°
2026-05-04 14:11 49.86849 8.79832 8828 ft 282 kts 122°
2026-05-04 14:11 49.84932 8.85163 10270 ft 287 kts 123°
2026-05-04 14:11 49.83917 8.87962 10425 ft 309 kts 123°
2026-05-04 14:12 49.82827 8.90963 10552 ft 330 kts 123°
2026-05-04 14:12 49.81672 8.94134 10869 ft 343 kts 123°
2026-05-04 14:12 49.79296 9.00652 12020 ft 352 kts 122°
2026-05-04 14:13 49.78091 9.03964 12642 ft 355 kts 122°
2026-05-04 14:13 49.76879 9.07319 13243 ft 360 kts 120°
2026-05-04 14:13 49.75938 9.10889 13825 ft 367 kts 108°
2026-05-04 14:13 49.75304 9.14745 14333 ft 371 kts 108°
2026-05-04 14:14 49.74356 9.18455 14854 ft 372 kts 120°
2026-05-04 14:14 49.71249 9.24830 15930 ft 374 kts 134°
2026-05-04 14:14 49.69522 9.27857 16484 ft 378 kts 134°
2026-05-04 14:15 49.66027 9.34017 17590 ft 385 kts 134°
2026-05-04 14:15 49.62420 9.40229 18586 ft 390 kts 140°
2026-05-04 14:16 49.57982 9.44980 19536 ft 390 kts 153°
2026-05-04 14:16 49.55636 9.47116 19981 ft 394 kts 153°
2026-05-04 14:17 49.50890 9.51434 20882 ft 399 kts 153°
2026-05-04 14:17 49.48526 9.53592 21323 ft 401 kts 153°
2026-05-04 14:17 49.43706 9.57991 22125 ft 405 kts 153°
2026-05-04 14:18 49.41281 9.60195 22389 ft 406 kts 153°
2026-05-04 14:18 49.36387 9.64630 23237 ft 411 kts 153°
2026-05-04 14:19 49.31835 9.70089 23995 ft 423 kts 139°
2026-05-04 14:19 49.29753 9.73289 24352 ft 425 kts 139°
2026-05-04 14:19 49.27656 9.76509 24702 ft 428 kts 139°
2026-05-04 14:19 49.25545 9.79740 25032 ft 430 kts 139°
2026-05-04 14:20 49.23419 9.82983 25320 ft 433 kts 139°
2026-05-04 14:20 49.21278 9.86243 25637 ft 435 kts 139°
2026-05-04 14:20 49.19124 9.89518 25972 ft 438 kts 139°
2026-05-04 14:21 49.14776 9.96113 26589 ft 442 kts 139°
2026-05-04 14:21 49.12583 9.99427 26893 ft 445 kts 139°
2026-05-04 14:21 49.10378 10.02745 27179 ft 447 kts 139°
2026-05-04 14:21 49.08158 10.06085 27452 ft 449 kts 139°
2026-05-04 14:22 49.05958 10.09391 27748 ft 451 kts 139°
2026-05-04 14:22 49.03665 10.12745 28043 ft 452 kts 140°
2026-05-04 14:22 49.01390 10.15979 28312 ft 454 kts 141°
2026-05-04 14:22 48.99059 10.19238 28544 ft 456 kts 141°
2026-05-04 14:23 48.94351 10.25790 29118 ft 461 kts 141°
2026-05-04 14:23 48.91989 10.29100 29379 ft 463 kts 141°
2026-05-04 14:23 48.89622 10.32431 29660 ft 464 kts 141°
2026-05-04 14:24 48.87257 10.35768 30036 ft 463 kts 141°
2026-05-04 14:24 48.84896 10.39098 30344 ft 463 kts 141°
2026-05-04 14:24 48.82545 10.42430 30586 ft 462 kts 140°
2026-05-04 14:24 48.80259 10.45861 30825 ft 462 kts 137°
2026-05-04 14:25 48.78036 10.49393 30970 ft 462 kts 136°
2026-05-04 14:25 48.71516 10.60136 31068 ft 463 kts 136°
2026-05-04 14:26 48.69318 10.63702 31410 ft 462 kts 136°
2026-05-04 14:26 48.67113 10.67229 31761 ft 460 kts 137°
2026-05-04 14:26 48.64905 10.70724 32117 ft 459 kts 137°
2026-05-04 14:26 48.62698 10.74198 32467 ft 457 kts 137°
2026-05-04 14:27 48.60499 10.77667 32817 ft 457 kts 136°
2026-05-04 14:27 48.58449 10.81245 33152 ft 457 kts 132°
2026-05-04 14:27 48.56467 10.84991 33506 ft 456 kts 131°
2026-05-04 14:27 48.54533 10.88767 33887 ft 454 kts 130°
2026-05-04 14:28 48.52602 10.92534 34147 ft 454 kts 131°
2026-05-04 14:28 48.50651 10.96267 34380 ft 453 kts 131°
2026-05-04 14:28 48.48669 10.99979 34629 ft 453 kts 132°
2026-05-04 14:28 48.46669 11.03658 34861 ft 453 kts 132°
2026-05-04 14:29 48.42654 11.10958 34975 ft 451 kts 133°
2026-05-04 14:29 48.38668 11.18220 34973 ft 450 kts 132°
2026-05-04 14:30 48.34693 11.25484 34962 ft 450 kts 132°
2026-05-04 14:31 48.28710 11.36388 34972 ft 451 kts 133°
2026-05-04 14:32 48.20741 11.50825 34971 ft 450 kts 133°
2026-05-04 14:32 48.16742 11.58050 34969 ft 450 kts 133°
2026-05-04 14:33 48.12738 11.65259 34946 ft 450 kts 133°
2026-05-04 14:33 48.08732 11.72460 34943 ft 450 kts 133°
2026-05-04 14:34 48.04716 11.79656 34944 ft 450 kts 133°
2026-05-04 14:34 48.00700 11.86822 34938 ft 450 kts 133°
2026-05-04 14:35 47.96678 11.93963 34946 ft 449 kts 133°
2026-05-04 14:35 47.92658 12.01101 34924 ft 449 kts 132°
2026-05-04 14:36 47.88640 12.08229 34932 ft 449 kts 133°
2026-05-04 14:36 47.84620 12.15341 34929 ft 449 kts 133°
2026-05-04 14:37 47.80596 12.22436 34920 ft 448 kts 133°
2026-05-04 14:37 47.76598 12.29469 34918 ft 448 kts 133°
2026-05-04 14:38 47.72564 12.36534 34917 ft 448 kts 133°
2026-05-04 14:38 47.68530 12.43586 34925 ft 448 kts 133°
2026-05-04 14:39 47.64496 12.50615 34922 ft 447 kts 133°
2026-05-04 14:39 47.60036 12.56950 34927 ft 443 kts 144°
2026-05-04 14:40 47.52784 12.65459 34907 ft 443 kts 144°
2026-05-04 14:40 47.47949 12.71148 34917 ft 444 kts 144°
2026-05-04 14:41 47.43113 12.76833 34934 ft 444 kts 144°
2026-05-04 14:42 47.33405 12.88140 34950 ft 444 kts 144°
2026-05-04 14:42 47.28553 12.93780 34956 ft 444 kts 144°
2026-05-04 14:43 47.23693 12.99418 34963 ft 444 kts 144°
2026-05-04 14:43 47.18871 13.05000 34983 ft 444 kts 144°
2026-05-04 14:44 47.14011 13.10617 34977 ft 444 kts 144°
2026-05-04 14:44 47.09150 13.16224 35000 ft 444 kts 144°
2026-05-04 14:45 47.04286 13.21814 35007 ft 444 kts 144°
2026-05-04 14:45 46.99416 13.27391 35011 ft 444 kts 144°
2026-05-04 14:46 46.94541 13.32961 35011 ft 444 kts 144°
2026-05-04 14:46 46.89668 13.38528 35022 ft 444 kts 144°
2026-05-04 14:47 46.84793 13.44076 35021 ft 444 kts 144°
2026-05-04 14:47 46.79908 13.49617 35032 ft 444 kts 144°
2026-05-04 14:48 46.75060 13.55110 35018 ft 444 kts 145°
2026-05-04 14:48 46.70168 13.60644 35021 ft 446 kts 145°
2026-05-04 14:49 46.65255 13.66189 35022 ft 447 kts 144°
2026-05-04 14:49 46.60330 13.71727 35028 ft 447 kts 144°
2026-05-04 14:50 46.55395 13.77267 35033 ft 448 kts 144°
2026-05-04 14:50 46.50458 13.82784 35033 ft 447 kts 146°
2026-05-04 14:51 46.45524 13.88296 35037 ft 448 kts 143°
2026-05-04 14:51 46.40611 13.93778 35041 ft 449 kts 146°
2026-05-04 14:52 46.35650 13.99293 35046 ft 450 kts 146°
2026-05-04 14:52 46.30678 14.04802 35053 ft 450 kts 144°
2026-05-04 14:53 46.25703 14.10311 35065 ft 449 kts 145°
2026-05-04 14:53 46.21569 14.14875 35053 ft 450 kts 144°
2026-05-04 14:54 46.16591 14.20368 35049 ft 451 kts 145°
2026-05-04 14:54 46.10786 14.26744 35043 ft 452 kts 144°
2026-05-04 14:55 46.06593 14.31343 35047 ft 452 kts 145°
2026-05-04 14:55 46.01583 14.36823 35054 ft 452 kts 145°
2026-05-04 14:56 45.96610 14.42252 35051 ft 452 kts 144°
2026-05-04 14:56 45.91589 14.47712 35055 ft 453 kts 146°
2026-05-04 14:57 45.86550 14.53180 35056 ft 454 kts 145°
2026-05-04 14:57 45.81514 14.58649 35066 ft 454 kts 144°
2026-05-04 14:58 45.76482 14.64109 35065 ft 454 kts 145°
2026-05-04 14:58 45.71435 14.69552 35060 ft 455 kts 144°
2026-05-04 14:59 45.66371 14.75000 35055 ft 456 kts 144°
2026-05-04 15:00 45.58751 14.83176 35044 ft 456 kts 144°
2026-05-04 15:00 45.53703 14.88576 35054 ft 457 kts 144°
2026-05-04 15:01 45.46068 14.96719 35056 ft 457 kts 144°
2026-05-04 15:01 45.40966 15.02152 35067 ft 458 kts 144°
2026-05-04 15:02 45.35859 15.07581 35047 ft 458 kts 145°
2026-05-04 15:02 45.30743 15.12992 35066 ft 458 kts 145°
2026-05-04 15:03 45.25623 15.18395 35046 ft 459 kts 145°
2026-05-04 15:03 45.20496 15.23802 35071 ft 459 kts 145°
2026-05-04 15:04 45.15401 15.29169 35071 ft 459 kts 145°
2026-05-04 15:04 45.10262 15.34572 35075 ft 459 kts 145°
2026-05-04 15:05 45.05135 15.39931 35083 ft 458 kts 145°
2026-05-04 15:05 45.00013 15.45275 35091 ft 458 kts 145°
2026-05-04 15:06 44.94885 15.50622 35066 ft 459 kts 145°
2026-05-04 15:07 44.87164 15.58653 35059 ft 459 kts 145°
2026-05-04 15:07 44.82047 15.63965 35080 ft 459 kts 145°
2026-05-04 15:08 44.76895 15.69293 35080 ft 459 kts 145°
2026-05-04 15:08 44.71735 15.74613 35076 ft 460 kts 145°
2026-05-04 15:09 44.66571 15.79934 35062 ft 461 kts 145°
2026-05-04 15:09 44.61394 15.85253 35078 ft 461 kts 145°
2026-05-04 15:10 44.53618 15.93206 35083 ft 461 kts 145°
2026-05-04 15:11 44.45827 16.01158 35077 ft 462 kts 145°
2026-05-04 15:11 44.40624 16.06454 35082 ft 463 kts 145°
2026-05-04 15:12 44.35437 16.11718 35090 ft 463 kts 145°
2026-05-04 15:12 44.30213 16.17006 35098 ft 464 kts 145°
2026-05-04 15:13 44.24984 16.22296 35109 ft 464 kts 144°
2026-05-04 15:13 44.19742 16.27587 35094 ft 465 kts 145°
2026-05-04 15:14 44.14483 16.32878 35098 ft 466 kts 145°
2026-05-04 15:14 44.09213 16.38169 35105 ft 467 kts 145°
2026-05-04 15:15 44.03984 16.43415 35110 ft 467 kts 145°
2026-05-04 15:15 43.98709 16.48695 35107 ft 467 kts 145°
2026-05-04 15:16 43.90772 16.56594 35102 ft 468 kts 145°
2026-05-04 15:17 43.82823 16.64513 35110 ft 469 kts 145°
2026-05-04 15:17 43.74887 16.72366 35105 ft 470 kts 144°
2026-05-04 15:18 43.69565 16.77621 35091 ft 471 kts 144°
2026-05-04 15:19 43.61549 16.85510 35097 ft 472 kts 144°
2026-05-04 15:19 43.53523 16.93378 35099 ft 472 kts 145°
2026-05-04 15:20 43.48174 16.98624 35103 ft 472 kts 145°
2026-05-04 15:20 43.42818 17.03859 35105 ft 472 kts 145°
2026-05-04 15:21 43.37458 17.09085 35103 ft 472 kts 144°
2026-05-04 15:22 43.29397 17.16918 35094 ft 473 kts 144°
2026-05-04 15:22 43.21355 17.24706 35096 ft 474 kts 145°
2026-05-04 15:23 43.15957 17.29917 35095 ft 475 kts 144°
2026-05-04 15:23 43.10553 17.35120 35103 ft 475 kts 145°
2026-05-04 15:24 42.99732 17.45517 35102 ft 476 kts 144°
2026-05-04 15:25 42.94299 17.50715 35098 ft 477 kts 145°
2026-05-04 15:26 42.86502 17.59038 35098 ft 477 kts 139°
2026-05-04 15:26 42.78947 17.67858 35115 ft 477 kts 139°
2026-05-04 15:27 42.71355 17.76667 35116 ft 478 kts 139°
2026-05-04 15:28 42.63753 17.85473 35114 ft 479 kts 139°
2026-05-04 15:29 42.56133 17.94272 35111 ft 480 kts 139°
2026-05-04 15:30 42.38320 18.14716 35132 ft 481 kts 139°
2026-05-04 15:31 42.30657 18.23475 35128 ft 481 kts 139°
2026-05-04 15:32 42.17853 18.38028 35120 ft 481 kts 139°
2026-05-04 15:34 42.05060 18.52494 35094 ft 483 kts 139°
2026-05-04 15:34 41.97321 18.61204 35101 ft 484 kts 139°
2026-05-04 15:35 41.89454 18.69723 35103 ft 484 kts 143°